Regional Weather Roundup
Issued by NWS Albany, NY

Home | Current Version | Previous Version | Text Only | Print | Product List | Glossary On
Versions: 1 2 3 4 5 6 7 8 9 10 11 12 13 14 15 16 17 18 19 20 21 22 23 24 25 26 27 28 29 30 31 32 33 34 35 36 37 38 39 40 41 42 43 44 45 46 47 48 49 50
000
ASUS41 KALY 252010
RWRALY

NEW YORK STATE HOURLY WEATHER ROUNDUP
NATIONAL WEATHER SERVICE ALBANY NY
400 PM EDT SAT APR 25 2015

NOTE: "FAIR" INDICATES FEW OR NO CLOUDS BELOW 12,000 FEET WITH NO
SIGNIFICANT WEATHER AND/OR NO OBSTRUCTIONS TO VISIBILITY.

NYZ032-033-038>043-046>054-057>066-NYZ062>081-252100-
EAST


CITY           SKY/WX    TMP DP  RH WIND       PRES   REMARKS
ALBANY         PTSUNNY   57  27  31 NW10G23   29.72F
GLENS FALLS    MOSUNNY   54  27  35 N16G26    29.72F
POUGHKEEPSIE   SUNNY     58  26  29 N7        29.70F
NEWBURGH       MOSUNNY   57  28  33 NW8       29.72F
MONTGOMERY     SUNNY     59  28  30 N15       29.70F
WHITE PLAINS   MOSUNNY   56  25  30 NW10G18   29.71F
ISLIP          MOSUNNY   57  25  29 W12       29.71F
NEW YORK CITY  MOSUNNY   58  22  24 W10       29.72F
CENTRAL PARK   SUNNY     60  22  23 MISG      29.74F
$$

NYZ005>009-017-018-044>046-055-056-252100-
CENTRAL


CITY           SKY/WX    TMP DP  RH WIND       PRES   REMARKS
FULTON         SUNNY     46  26  45 W8        29.84F
SYRACUSE       MOSUNNY   50  27  40 W12G22    29.82F
ROME           CLOUDY    49  28  44 NW13G22   29.80F
ELMIRA         SUNNY     53  27  36 NE12      29.78F
BINGHAMTON     SUNNY     48  26  42 NW9       29.76F
MONTICELLO     SUNNY     52  25  35 NW9G18    29.74F
$$

NYZ026>034-041>043-252100-
NORTH


CITY           SKY/WX    TMP DP  RH WIND       PRES   REMARKS
WATERTOWN      MOSUNNY   45  29  53 W14       29.82F
FORT DRUM      NOT AVBL
MASSENA        SUNNY     50  30  46 W12       29.80F
SARANAC LAKE   PTSUNNY   43  27  53 W8G20     29.73F
PLATTSBURGH    CLOUDY    43  28  55 SE3       29.76F
$$

NYZ001>004-010>016-019>021-252100-
WEST


CITY           SKY/WX    TMP DP  RH WIND       PRES   REMARKS
NIAGARA FALLS  MOSUNNY   49  27  42 NE15      29.83F
BUFFALO        MOSUNNY   49  26  41 N10       29.82F
DUNKIRK        MOSUNNY   45  26  47 N14       29.82F
JAMESTOWN      MOSUNNY   46  21  36 MISG      29.78F
WELLSVILLE     MOSUNNY   50  21  32 N6G17     29.76F
ROCHESTER      MOSUNNY   50  26  39 N14       29.83F
PENN YAN       MOSUNNY   51  28  41 VRB6      29.80F
$$

             KEY
       WCI = WIND CHILL INDEX
       VSB = VISIBILITY
       HX  = HEAT INDEX
$$


USA.gov is the U.S. government's official web portal to all federal, state and local government web resources and services.